Flag for Canada Weather past 2 weeks in Paradise, Newfoundland and Labrador, Canada

Now
32 °F

Snow flurries. Low clouds.


Feels Like: 27 °F
Forecast: 26 / 34 °F
Wind: 5 mph from South

Location: St. John's

Current Time: Dec 29, 2014 at 9:05:22 AM

Latest Report: Dec 29, 2014 at 8:30 AM


Visibility: 10 mi

Pressure: 29.53 "Hg

Humidity: 93%

Dew point: 30 °F

Location of ParadiseLocation

Historic Weather in Paradise — Graph

°F

Paradise temperature yesterday

Maximum temperature yesterday: 34 °F (at 1:30 PM)
Minimum temperature yesterday: 28 °F (at 6:30 AM)
Average temperature yesterday: 31 °F

Past Weeks' High & Low Weather Summary

 TemperatureHumidityPressure
High54 °F (Dec 14, 8:16 AM)100% (Dec 14, 7:30 AM)30.52 "Hg (Dec 14, 7:30 AM)
Low25 °F (Dec 21, 6:30 PM)60% (Dec 27, 11:30 AM)29.35 "Hg (Dec 19, 5:30 AM)
Average34 °F89%29.96 "Hg
* Reported Dec 14 7:30 AM — Dec 29 7:30 AM, Paradise, Weather by CustomWeather, © 2014

Note: Actual official high and low records may vary slightly from our data, if they occured in-between our weather recording intervals... More about our weather records

Advertising

Paradise weather history for previous 24 hours

 ConditionsComfort  
Time TempWeatherWind HumidityBarometerVisibility
7:30 AM
Dec 29
30 °FSnow flurries. Low clouds.3 mph100%29.53 "Hg10 mi
6:30 AM30 °FSnow flurries. Overcast.2 mph100%29.52 "Hg12 mi
5:30 AM30 °FMostly cloudy.No wind100%29.51 "Hg15 mi
4:30 AM30 °FLow clouds.3 mph100%29.49 "Hg8 mi
3:30 AM30 °FIce fog.3 mph100%29.50 "Hg6 mi
3:15 AM28 °FIce fog.2 mph100%29.49 "Hg5 mi
2:30 AM28 °FSnow flurries. Ice fog.No wind100%29.48 "Hg4 mi
1:30 AM28 °FChilly.No wind100%29.47 "Hg1 mi
12:30 AM30 °FSnow flurries. Ice fog.2 mph100%29.48 "Hg1 mi
11:30 PM
Dec 28
32 °FSnow flurries. Mostly cloudy.3 mph93%29.51 "Hg3 mi
10:30 PM32 °FSnow flurries. Low clouds.6 mph93%29.54 "Hg1 mi
9:30 PM30 °FSnow flurries. Low clouds.5 mph100%29.57 "Hg1 mi
8:30 PM30 °FSnow flurries. Low clouds.9 mph100%29.59 "Hg2 mi
7:30 PM30 °FSnow flurries. Low clouds.10 mph100%29.62 "Hg1 mi
6:30 PM32 °FSnow flurries. Low clouds.9 mph93%29.64 "Hg1 mi
5:30 PM30 °FSnow flurries. Overcast.8 mph100%29.65 "Hg2 mi
4:30 PM32 °FSnow flurries. Overcast.9 mph93%29.68 "Hg2 mi
3:30 PM32 °FSnow flurries. Mostly cloudy.14 mph87%29.69 "Hg12 mi
2:30 PM32 °FSnow flurries. Overcast.15 mph87%29.70 "Hg15 mi
1:30 PM34 °FOvercast.13 mph75%29.71 "Hg15 mi
12:30 PM32 °FPartly sunny.14 mph75%29.70 "Hg15 mi
11:30 AM30 °FPartly sunny.17 mph75%29.75 "Hg15 mi
10:30 AM30 °FPartly sunny.16 mph75%29.78 "Hg15 mi
9:30 AM30 °FPartly sunny.17 mph75%29.78 "Hg15 mi
Weather by CustomWeather, © 2014

See weather overviewHow to use our weather pages